#timestamp,LO_Frequency,Hit,StdDev 
1649937615.2,286047002.0,N
1649937635.1,286047004.0,Y
1649937636.0,286047004.0,P
1649937655.8,286047000.2,N
1649937705.7,286046999.7,E
1649937715.6,286047001.8,N
1649937735.4,286047002.0,P
1649937755.3,286047001.6,P
1649937775.1,286047001.6,Y
1649937795.9,286047001.2,P
1649937815.7,286046999.8,N
1649937835.5,286046998.1,N
1649937855.4,286046999.9,N
1649937875.2,286047001.5,N
1649937895.1,286047002.8,N
1649937896.0,286047002.8,N
1649937915.8,286046999.9,N
1649937935.6,286046999.8,N
1649937955.5,286046999.8,N
1649937975.3,286047000.5,N
1649937995.1,286047002.3,N
1649938015.9,286047000.9,N
1649938035.7,286047000.8,N
1649938055.6,286046998.1,N
1649938075.4,286047000.9,N
1649938095.2,286046998.9,N
1649938115.1,286046999.7,N
1649938116.0,286046999.7,N
1649938135.8,286047002.2,N
1649938155.7,286046999.7,N
1649938175.5,286047000.6,N
1649938195.3,286046998.2,N
1649938215.2,286046998.8,N
1649938235.0,286047001.1,N
1649938235.9,286047001.1,N
1649938255.8,286047001.2,N
1649938275.6,286047000.7,N
1649938295.4,286047000.9,N
1649938315.3,286046998.8,N
1649938335.1,286046999.5,N
1649938355.9,286046999.3,N
1649938375.7,286046998.7,N
1649938395.5,286046998.4,N
1649938415.4,286047002.2,N
1649938435.2,286047002.1,N
1649938455.1,286047000.3,N
1649938456.0,286047000.3,N
1649938475.8,286047000.3,N
1649938495.6,286047002.5,N
1649938515.5,286046999.8,N
1649938535.3,286047001.0,N
1649938555.2,286046999.8,N
1649938575.9,286047001.4,N
1649938595.7,286047000.6,N
1649938615.6,286046998.9,N
1649938635.4,286047000.9,N
1649938655.3,286047000.8,N
1649938675.1,286046998.1,N
1649938676.0,286046998.1,N
1649938695.8,286047000.0,N
1649938715.7,286046998.2,N
1649938735.5,286046998.9,N
1649938755.3,286046998.4,N
1649938775.2,286046998.5,N
1649938795.0,286047000.6,N
1649938795.9,286047000.6,N
1649938815.8,286046998.4,N
1649938835.6,286047000.0,N
1649938855.4,286047002.3,N
1649938875.3,286047004.0,Y
1649938895.1,286047002.4,P
1649938915.9,286047000.4,N
1649938935.7,286047000.6,N
1649938955.5,286046999.0,N
1649938975.4,286046999.4,N
1649938995.2,286047002.8,N
1649939015.1,286047002.3,N
1649939016.0,286047002.3,N
1649939035.8,286047000.7,N
1649939055.6,286046999.9,N
1649939075.5,286046999.8,N
1649939095.3,286047002.0,N
1649939115.1,286047002.7,N
1649939135.9,286047000.0,N
1649939155.7,286047000.3,N
1649939175.6,286047001.0,N
1649939195.4,286046998.5,N
1649939215.2,286047000.7,N
1649939235.1,286046998.6,N
1649939236.0,286046998.6,N
1649939255.8,286046998.6,N
1649939275.6,286046998.2,N
1649939295.5,286047002.7,N
1649939315.3,286047001.8,N
1649939335.2,286046999.7,N
1649939355.9,286047002.6,N
1649939375.7,286047000.6,N
1649939395.6,286047001.0,N
1649939415.4,286046999.0,N
1649939435.2,286047001.1,N
1649939455.1,286047001.4,N
1649939456.0,286047001.4,N
1649939475.8,286046999.9,N
1649939495.7,286047000.4,N
1649939515.5,286046999.8,N
1649939535.3,286047002.6,N
1649939555.2,286047000.5,N
1649939575.0,286047000.3,N
1649939575.9,286047000.3,N
1649939595.8,286047000.0,N
1649939615.6,286047000.1,N
1649939635.4,286046999.8,N
1649939655.3,286046998.7,N
1649939675.1,286046998.6,N
1649939695.9,286047000.4,N
1649939715.7,286046998.6,N
1649939735.5,286047000.0,N
1649939755.4,286046998.8,N
1649939775.2,286047000.7,N
1649939795.0,286047001.2,N
1649939795.9,286047001.2,N
1649939815.8,286047000.0,N
1649939835.6,286047000.6,N
1649939855.5,286046998.1,N
1649939875.3,286047002.3,N
1649939895.1,286047001.7,N
1649939915.9,286047002.8,N
1649939935.7,286047002.1,N
1649939955.6,286047001.8,N
1649939975.4,286047000.8,N
1649939995.2,286046998.8,N
1649940015.1,286046996.5,N
1649940016.0,286046996.5,N
1649940035.8,286046997.8,N
1649940055.7,286046999.2,N
1649940075.5,286046998.8,N
1649940095.3,286046998.7,N
1649940115.2,286047000.4,N
1649940135.0,286047000.4,N
1649940135.9,286047000.4,N
1649940155.7,286047000.1,N
1649940175.6,286046999.0,N
1649940195.4,286046999.8,N
1649940215.3,286047000.6,N
1649940235.1,286047000.3,N
1649940236.0,286047000.3,N
1649940255.8,286047001.5,N
1649940275.7,286047002.7,N
1649940295.5,286047002.4,N
1649940315.3,286047000.2,N
1649940335.2,286047000.4,N
1649940355.0,286047002.7,N
1649940355.9,286047002.7,N
1649940375.8,286046998.4,N
1649940395.6,286046999.1,N
1649940415.4,286046998.9,N
1649940435.3,286046997.6,N
1649940455.1,286046994.9,Y
1649940475.9,286046995.0,P
1649940495.7,286046999.0,N
1649940515.5,286047000.5,N
1649940535.4,286047000.2,N
1649940555.2,286046998.1,N
1649940575.0,286046999.3,N
1649940575.9,286046999.3,N
1649940595.8,286046996.8,N
1649940615.6,286046994.9,Y
1649940635.5,286046996.7,P
1649940655.3,286046999.6,N
1649940675.1,286046996.7,N
1649940695.9,286046997.7,N
1649940715.7,286046996.9,N
1649940735.6,286046996.5,Y
1649940755.4,286047001.0,P
1649940775.2,286046998.1,N
1649940795.1,286046999.0,N
1649940796.0,286046999.0,N
1649940815.8,286046997.1,N
1649940835.6,286046997.3,N
1649940855.5,286046995.5,Y
1649940875.3,286046994.9,P
1649940895.2,286046997.7,N
1649940915.9,286046996.9,N
1649940935.7,286046996.7,N
1649940955.6,286046996.8,N
1649940975.4,286046997.0,N
1649940995.2,286046997.5,N
1649941015.1,286046997.1,Y
1649941016.0,286046997.1,P
1649941035.8,286046998.3,P
1649941055.7,286046996.9,P
1649941075.5,286046997.3,Y
1649941095.3,286046999.9,P
1649941115.2,286046999.7,N
1649941135.0,286047000.2,N
1649941135.9,286047000.2,N
1649941155.8,286047002.0,N
1649941175.6,286047002.6,N
1649941195.4,286046999.9,N
